User: anonymous   Login
Location: Caltech
(34.1382°N, 118.1253°W)
Time: 11:17:11
(UTC-08:00)
Language:

Oscar 16 - Orbit

View from above orbital plane
View from above orbital plane
View from above satellite
View from above satellite

Ground track
Ground track

The orbit data is extracted from the following two-line orbital elements,

1 20439U 90005D   17018.78177620 +.00000031 +00000-0 +27652-4 0  9997
2 20439 098.5960 319.1998 0009812 240.9333 148.8865 14.32664336409765
Epoch (UTC): 18 January 2017 18:45:45
Eccentricity: 0.0009812
inclination: 98.5960°
perigee height: 776 km
apogee height: 790 km
right ascension of ascending node: 319.1998°
argument of perigee: 240.9333°
revolutions per day: 14.32664336
mean anomaly at epoch: 148.8865°
orbit number at epoch: 40976

The dashed part of the orbit path shows where the satellite is in the earth's shadow,  

DLR